EW3204 Weather Reports


time (UTC)temp
F
wind
direction
speed
knots
gust
knots
rain 1hr
in
rain 24hr
in
rain mn
in
humidity
%
barometer
mb
20260509163022 90 103 2.6 0.0 0.00 0.00 0.00 5 1006.8
20260509161517 89 42 1.7 0.0 0.00 0.00 0.00 5 1006.7
20260509160014 89 99 0.9 0.0 0.00 0.00 0.00 3 1006.7
20260509154509 89 304 0.9 0.0 0.00 0.00 0.00 3 1006.6
20260509153013 87 304 0.9 0.0 0.00 0.00 0.00 3 1006.7
20260509151600 85 304 0.0 0.0 0.00 0.00 0.00 4 1006.7
20260509150108 83 304 0.0 0.0 0.00 0.00 0.00 4 1006.7
20260509144553 81 304 0.9 0.0 0.00 0.00 0.00 5 1006.7
20260509143048 80 279 2.6 0.0 0.00 0.00 0.00 5 1006.6
20260509141545 78 202 3.5 0.0 0.00 0.00 0.00 4 1006.4
20260509140054 76 205 4.3 0.0 0.00 0.00 0.00 5 1006.3
20260509134535 75 194 4.3 0.0 0.00 0.00 0.00 5 1006.1
20260509133030 75 191 6.1 0.0 0.00 0.00 0.00 4 1005.9
20260509131526 74 204 5.2 0.0 0.00 0.00 0.00 5 1005.8
20260509130022 74 200 6.1 0.0 0.00 0.00 0.00 5 1005.7
20260509124518 73 210 6.1 0.0 0.00 0.00 0.00 5 1005.6
20260509123012 73 220 5.2 0.0 0.00 0.00 0.00 5 1005.4
20260509121508 75 216 4.3 0.0 0.00 0.00 0.00 5 1005.4
20260509120004 75 215 4.3 0.0 0.00 0.00 0.00 5 1005.3
20260509114501 75 204 4.3 0.0 0.00 0.00 0.00 6 1005.3
20260509113059 76 207 3.5 0.0 0.00 0.00 0.00 5 1005.2
20260509111559 79 207 2.6 0.0 0.00 0.00 0.00 6 1005.3
20260509110057 80 167 4.3 0.0 0.00 0.00 0.00 7 1005.4
20260509104603 75 189 2.6 0.0 0.00 0.00 0.00 6 1005.3
20260509103105 76 279 2.6 0.0 0.00 0.00 0.00 6 1005.4
20260509101559 77 214 4.3 0.0 0.00 0.00 0.00 5 1005.3
20260509100051 77 214 1.7 0.0 0.00 0.00 0.00 7 1005.4
20260509094557 78 223 1.7 0.0 0.00 0.00 0.00 5 1005.4
20260509093047 79 188 2.6 0.0 0.00 0.00 0.00 5 1005.4
20260509091550 79 181 1.7 0.0 0.00 0.00 0.00 8 1005.5
20260509090052 80 55 1.7 0.0 0.00 0.00 0.00 7 1005.6
20260509084542 79 219 0.9 0.0 0.00 0.00 0.00 6 1005.8
20260509083041 78 80 0.9 0.0 0.00 0.00 0.00 6 1005.7
20260509081535 80 223 1.7 0.0 0.00 0.00 0.00 6 1005.8
20260509080033 81 283 1.7 0.0 0.00 0.00 0.00 6 1005.8
20260509074529 82 283 0.9 0.0 0.00 0.00 0.00 4 1006.0
20260509073035 83 211 2.6 0.0 0.00 0.00 0.00 5 1006.0
20260509071524 83 295 1.7 0.0 0.00 0.00 0.00 4 1006.1
20260509070023 82 238 0.9 0.0 0.00 0.00 0.00 4 1006.2
20260509064522 83 270 2.6 0.0 0.00 0.00 0.00 4 1006.3
20260509063028 84 259 2.6 0.0 0.00 0.00 0.00 4 1006.4
20260509061520 84 248 3.5 0.0 0.00 0.00 0.00 4 1006.4
20260509060122 85 267 4.3 0.0 0.00 0.00 0.00 4 1006.4
20260509054519 85 265 5.2 0.0 0.00 0.00 0.00 4 1006.3
20260509053029 85 281 7.0 0.0 0.00 0.00 0.00 5 1006.5
20260509051520 85 279 6.1 0.0 0.00 0.00 0.00 5 1006.5
20260509050019 85 279 7.8 0.0 0.00 0.00 0.00 5 1006.5
20260509044518 85 265 7.8 0.0 0.00 0.00 0.00 6 1006.4
20260509043036 85 288 7.8 0.0 0.00 0.00 0.00 6 1006.4
20260509041517 86 270 7.8 0.0 0.00 0.00 0.00 6 1006.3
20260509040015 86 261 8.7 0.0 0.00 0.00 0.00 7 1006.1
20260509034515 86 226 9.6 0.0 0.00 0.00 0.00 7 1006.0
20260509033014 86 260 11.3 0.0 0.00 0.00 0.00 8 1005.8
20260509031514 87 260 11.3 0.0 0.00 0.00 0.00 8 1005.7
20260509030013 87 264 10.4 0.0 0.00 0.00 0.00 9 1005.6
20260509024512 87 275 12.2 0.0 0.00 0.00 0.00 9 1005.4
20260509023012 88 271 13.9 0.0 0.00 0.00 0.00 9 1005.3
20260509021512 88 279 13.9 0.0 0.00 0.00 0.00 9 1005.1
20260509020011 89 270 13.9 0.0 0.00 0.00 0.00 10 1005.1
20260509014520 90 302 12.2 0.0 0.00 0.00 0.00 11 1005.1
20260509013010 91 275 13.0 0.0 0.00 0.00 0.00 11 1005.1
20260509011511 92 288 13.0 0.0 0.00 0.00 0.00 12 1005.0
20260509010008 93 277 10.4 0.0 0.00 0.00 0.00 11 1005.0
20260509004509 94 277 11.3 0.0 0.00 0.00 0.00 12 1005.0
20260509003008 95 254 9.6 0.0 0.00 0.00 0.00 11 1004.9
20260509001510 95 271 10.4 0.0 0.00 0.00 0.00 10 1005.1
20260509000008 96 283 10.4 0.0 0.00 0.00 0.00 10 1005.1
20260508234506 96 250 13.0 0.0 0.00 0.00 0.00 9 1005.1
20260508233006 97 275 11.3 0.0 0.00 0.00 0.00 8 1005.0
20260508231505 96 277 13.9 0.0 0.00 0.00 0.00 7 1005.1
20260508230004 97 266 10.4 0.0 0.00 0.00 0.00 7 1005.2
20260508224512 98 273 9.6 0.0 0.00 0.00 0.00 7 1005.3
20260508223003 98 278 12.2 0.0 0.00 0.00 0.00 6 1005.3
20260508221504 98 279 11.3 0.0 0.00 0.00 0.00 6 1005.6
20260508220104 98 310 10.4 0.0 0.00 0.00 0.00 6 1005.6
20260508220002 98 298 10.4 0.0 0.00 0.00 0.00 6 1005.7
20260508214559 99 297 9.6 0.0 0.00 0.00 0.00 6 1005.8
20260508213059 99 293 10.4 0.0 0.00 0.00 0.00 7 1005.9
20260508211557 99 328 10.4 0.0 0.00 0.00 0.00 8 1006.0
20260508210055 99 260 11.3 0.0 0.00 0.00 0.00 7 1006.2
20260508204554 98 305 11.3 0.0 0.00 0.00 0.00 7 1006.2
20260508203052 99 293 11.3 0.0 0.00 0.00 0.00 7 1006.2
20260508201550 98 302 9.6 0.0 0.00 0.00 0.00 8 1006.4
20260508200048 98 291 12.2 0.0 0.00 0.00 0.00 8 1006.6
20260508194601 98 259 10.4 0.0 0.00 0.00 0.00 8 1006.9
20260508193051 98 320 10.4 0.0 0.00 0.00 0.00 8 1006.9
20260508191549 97 307 12.2 0.0 0.00 0.00 0.00 8 1007.1
20260508184543 96 287 10.4 0.0 0.00 0.00 0.00 8 1007.6
20260508183043 96 286 10.4 0.0 0.00 0.00 0.00 8 1007.7
20260508181545 96 299 7.8 0.0 0.00 0.00 0.00 9 1007.9
20260508180038 95 263 7.8 0.0 0.00 0.00 0.00 9 1008.1
20260508174538 95 268 8.7 0.0 0.00 0.00 0.00 10 1008.0
20260508173035 95 295 7.8 0.0 0.00 0.00 0.00 10 1008.1
20260508171540 94 278 8.7 0.0 0.00 0.00 0.00 11 1008.1
20260508170033 94 277 9.6 0.0 0.00 0.00 0.00 11 1008.2
20260508164531 93 304 8.7 0.0 0.00 0.00 0.00 11 1008.2